Zurück zum Katalog

SL-8 DEB

AktivPO
NORAD 29283·DEBRIS·🇷🇺 Russia

Gestartet Dec 17, 1981 von Plesetsk Cosmodrome

Loading…

Nächste Überflüge (nächste 24 Stunden)

TLE

AktuellSource: Space-Track

Epoche: Sep 13, 2026, 12:44 UTC

1 29283U 81120M   26256.53111149 -.00000079  00000-0 -99174-3 0  9993
2 29283  82.9655 356.0150 0027825 305.4906  54.3559 12.07889931524035

Verfolge SL-8 DEB in Echtzeit mit AllMySat

Download on the App Store